This is the latest recevied weather packets stored in our database for station/object N5PUP-13. If no packets are shown the sender has not sent any weather packets the latest 10 day(s).
| Time | Temp. | Humidity | Pressure | Rain* | Wind** | Luminosity | Snow |
|---|---|---|---|---|---|---|---|
| 1787495400 | 26.11° C | 66% | 1018.9 hPa | 0 mm | - | - | - |
| 1787495100 | 25.56° C | 69% | 1019 hPa | 0 mm | - | - | - |
| 1787494800 | 25.56° C | 69% | 1019 hPa | 0 mm | - | - | - |
| 1787494500 | 25° C | 70% | 1019.1 hPa | 0 mm | - | - | - |
| 1787494200 | 25.56° C | 70% | 1019.2 hPa | 0 mm | - | - | - |
| 1787493900 | 25° C | 71% | 1019.3 hPa | 0 mm | - | - | - |
| 1787493600 | 24.44° C | 73% | 1019.4 hPa | 0 mm | - | - | - |
| 1787493300 | 23.89° C | 74% | 1019.6 hPa | 0 mm | - | - | - |
| 1787493000 | 23.89° C | 76% | 1019.7 hPa | 0 mm | - | - | - |
| 1787492700 | 23.33° C | 76% | 1019.6 hPa | 0 mm | - | - | - |
| 1787492400 | 23.33° C | 76% | 1019.4 hPa | 0 mm | - | - | - |
| 1787492100 | 23.33° C | 77% | 1019.3 hPa | 0 mm | - | - | - |
| 1787491800 | 22.78° C | 79% | 1019.3 hPa | 0 mm | - | - | - |
| 1787491500 | 22.78° C | 79% | 1019.4 hPa | 0 mm | - | - | - |
| 1787491200 | 22.78° C | 80% | 1019.3 hPa | 0 mm | - | - | - |
| 1787490900 | 22.22° C | 81% | 1019.2 hPa | 0 mm | - | - | - |
| 1787490600 | 22.22° C | 81% | 1019.1 hPa | 0 mm | - | - | - |
| 1787490300 | 22.22° C | 81% | 1019 hPa | 0 mm | - | - | - |
| 1787490000 | 22.22° C | 81% | 1018.9 hPa | 0 mm | - | - | - |
| 1787489700 | 22.22° C | 81% | 1018.8 hPa | 0 mm | - | - | - |
| 1787489400 | 22.22° C | 81% | 1018.8 hPa | 0 mm | - | - | - |
| 1787489100 | 22.22° C | 82% | 1018.8 hPa | 0 mm | - | - | - |
| 1787488800 | 22.22° C | 82% | 1018.8 hPa | 0 mm | - | - | - |
| 1787488500 | 22.22° C | 82% | 1018.7 hPa | 0 mm | - | - | - |
| 1787488200 | 22.22° C | 82% | 1018.7 hPa | 0 mm | - | - | - |
* Rain latest hour (hover to see other rain measurements)
** Current wind speed in m/s (hover to see current wind gust speed)